EW5849 Buccheri IT current weather conditions

sailwx.info

Wind from 129 at 6 knots gusting 7

Air temperature 11.7° C
Dewpoint 11.5° C

Last reported at 2019-Dec-05 21:05 UTC.
Time now 2019-Dec-05 22:01 UTC

Location: N 37°07' E 014°51'.
View on Google Maps.

See reports from other nearby stations

  
Tides and Currents Weather Stations Pressure Air Temp Water Temp Dewpoint Dewpoint Depression Visibility Wind Speed Wind Dir Waves Ship Positions
date/time (UTC)wind fromknots sea level pressurealtimeterstation pressurevisibilityair tempwater tempwave heightnotes
2019-Dec-05 21:05 129 6 gusting 7 11.7
2019-Dec-05 21:00 115 5 gusting 7 11.7
2019-Dec-05 20:55 113 5 gusting 8 11.1
2019-Dec-05 20:50 112 5 gusting 8 11.1
2019-Dec-05 20:45 126 5 gusting 6 11.1
2019-Dec-05 20:40 126 5 gusting 7 11.1
2019-Dec-05 20:35 147 5 gusting 7 11.1
2019-Dec-05 20:30 153 5 gusting 6 11.1
2019-Dec-05 20:25 137 5 gusting 7 11.1
2019-Dec-05 20:20 147 4 gusting 8 11.1
2019-Dec-05 20:15 159 4 gusting 6 11.1
2019-Dec-05 20:10 161 5 gusting 5 11.1
2019-Dec-05 20:05 166 5 gusting 6 11.1
2019-Dec-05 20:00 156 5 gusting 6 11.1
2019-Dec-05 19:55 158 5 gusting 10 11.1
2019-Dec-05 19:50 153 6 gusting 10 11.1
2019-Dec-05 19:45 160 6 gusting 6 11.1
2019-Dec-05 19:40 170 6 gusting 6 11.1
2019-Dec-05 19:35 145 6 gusting 10 11.1
2019-Dec-05 19:30 152 6 gusting 7 11.1
2019-Dec-05 19:25 139 6 gusting 10 11.1
2019-Dec-05 19:20 135 4 gusting 8 11.1
2019-Dec-05 19:15 140 4 gusting 11 10.6
2019-Dec-05 19:10 141 1 gusting 6 10.6
2019-Dec-05 19:05 113 1 gusting 6 10.6
2019-Dec-05 19:00 123 0 gusting 5 10.6
2019-Dec-05 18:55 131 0 gusting 4 10.6
2019-Dec-05 18:50 127 1 gusting 4 11.1
2019-Dec-05 18:45 062 1 gusting 2 11.1
2019-Dec-05 18:40 042 5 gusting 5 11.1
2019-Dec-05 18:35 041 5 gusting 6 11.1
2019-Dec-05 18:30 051 5 gusting 8 11.1
2019-Dec-05 18:25 054 5 gusting 8 11.1
2019-Dec-05 18:20 054 5 gusting 8 11.1
2019-Dec-05 18:15 058 5 gusting 6 11.1
2019-Dec-05 18:10 059 4 gusting 7 11.1
2019-Dec-05 18:05 046 4 gusting 6 11.1
2019-Dec-05 18:00 052 4 gusting 6 11.1
2019-Dec-05 17:55 056 3 gusting 7 11.1
2019-Dec-05 17:50 050 2 gusting 6 11.1
2019-Dec-05 17:45 042 2 gusting 6 11.1
2019-Dec-05 17:40 051 4 gusting 6 11.1
2019-Dec-05 17:35 051 4 gusting 5 11.1
2019-Dec-05 17:30 064 1 gusting 5 11.1
2019-Dec-05 17:25 053 2 gusting 6 11.1
2019-Dec-05 17:20 059 4 gusting 6 11.1
2019-Dec-05 17:15 088 3 gusting 6 11.1
2019-Dec-05 17:10 058 2 gusting 6 11.1
2019-Dec-05 17:05 042 2 gusting 5 11.1
2019-Dec-05 17:00 056 4 gusting 5 11.1
2019-Dec-05 16:55 058 4 gusting 6 11.1
2019-Dec-05 16:50 049 4 gusting 6 11.1
2019-Dec-05 16:45 048 4 gusting 6 11.1
2019-Dec-05 16:40 051 5 gusting 5 11.1
2019-Dec-05 16:35 060 4 gusting 7 11.1
2019-Dec-05 16:30 052 1 gusting 7 11.1
2019-Dec-05 16:25 070 2 gusting 6 11.1
2019-Dec-05 16:20 031 4 gusting 5 11.1
2019-Dec-05 16:15 041 4 gusting 5 11.1
2019-Dec-05 16:10 057 4 gusting 6 11.1
2019-Dec-05 16:05 073 4 gusting 4 11.1
2019-Dec-05 16:00 069 4 gusting 6 11.1
2019-Dec-05 15:55 069 4 gusting 7 11.1
2019-Dec-05 15:50 075 4 gusting 6 11.1
2019-Dec-05 15:45 073 4 gusting 6 11.1
2019-Dec-05 15:40 058 1 gusting 7 11.1
2019-Dec-05 15:35 051 2 gusting 6 11.1
2019-Dec-05 15:30 065 4 gusting 5 11.1
2019-Dec-05 15:25 034 4 gusting 5 11.1
2019-Dec-05 15:20 065 4 gusting 7 11.1
2019-Dec-05 15:15 054 4 gusting 6 11.1
2019-Dec-05 15:10 067 4 gusting 6 10.6
2019-Dec-05 15:05 033 4 gusting 6 10.6
2019-Dec-05 15:00 040 5 gusting 6 10.6
2019-Dec-05 14:55 046 5 gusting 8 10.6
2019-Dec-05 14:50 058 5 gusting 8 10.6
2019-Dec-05 14:45 060 5 gusting 7 10.6
2019-Dec-05 14:40 058 5 gusting 10 10.6
2019-Dec-05 14:35 044 5 gusting 10 10.6
2019-Dec-05 14:30 054 4 gusting 10 10.6
2019-Dec-05 14:25 048 4 gusting 10 10.6
2019-Dec-05 14:20 027 4 gusting 6 10.6
2019-Dec-05 14:15 026 3 gusting 6 10.6
2019-Dec-05 14:10 013 1 gusting 6 10.6
2019-Dec-05 14:05 020 1 gusting 4 10.6
2019-Dec-05 14:00 004 1 gusting 4 10.6
2019-Dec-05 13:55 354 1 gusting 2 10.6
2019-Dec-05 13:40 001 5 gusting 6 10.6
2019-Dec-05 13:35 011 5 gusting 6 10.6
2019-Dec-05 13:30 018 4 gusting 6 10.6
2019-Dec-05 13:20 035 5 gusting 8 10.6
2019-Dec-05 13:05 048 6 gusting 10 10.6
2019-Dec-05 12:35 057 6 gusting 12 10.6
2019-Dec-05 12:30 049 6 gusting 13 10.6
2019-Dec-05 12:25 057 6 gusting 13 10.6
2019-Dec-05 12:20 052 6 gusting 10 10.6
2019-Dec-05 12:15 078 6 gusting 11 10.6
2019-Dec-05 12:10 064 6 gusting 10 10.6
2019-Dec-05 12:05 066 6 gusting 10 10.6
2019-Dec-05 12:00 070 6 gusting 12 10.0
2019-Dec-05 11:55 065 6 gusting 8 10.0
2019-Dec-05 11:50 054 6 gusting 11 10.0
2019-Dec-05 11:45 066 6 gusting 11 10.0
2019-Dec-05 11:40 052 6 gusting 13 10.0
2019-Dec-05 11:35 059 6 gusting 13 10.0
2019-Dec-05 11:30 055 6 gusting 12 10.0
2019-Dec-05 11:25 052 6 gusting 8 10.0
2019-Dec-05 11:20 061 8 gusting 12 10.0
2019-Dec-05 11:15 064 8 gusting 13 10.0
2019-Dec-05 11:10 055 10 gusting 13 10.0
2019-Dec-05 11:05 055 10 gusting 13 10.0
2019-Dec-05 11:00 056 11 gusting 15 10.0
2019-Dec-05 10:55 062 11 gusting 15 10.0
2019-Dec-05 10:50 057 10 gusting 14 10.0
2019-Dec-05 10:45 069 10 gusting 15 10.0
2019-Dec-05 10:40 078 11 gusting 15 10.0
2019-Dec-05 10:35 068 11 gusting 15 10.0
2019-Dec-05 10:30 070 13 gusting 15 10.0
2019-Dec-05 10:25 072 12 gusting 19 10.0
2019-Dec-05 10:20 067 11 gusting 19 10.0
2019-Dec-05 10:15 063 11 gusting 20 10.0
2019-Dec-05 10:10 070 11 gusting 20 10.0
2019-Dec-05 10:05 075 11 gusting 18 10.0
2019-Dec-05 10:00 076 12 gusting 18 10.0
2019-Dec-05 09:55 071 12 gusting 18 10.0
2019-Dec-05 09:50 062 11 gusting 20 9.4
2019-Dec-05 09:45 072 11 gusting 20 9.4
2019-Dec-05 09:40 061 10 gusting 15 9.4
2019-Dec-05 09:35 062 11 gusting 17 9.4
2019-Dec-05 09:30 061 12 gusting 19 9.4
2019-Dec-05 09:25 066 12 gusting 17 9.4
2019-Dec-05 09:20 068 12 gusting 18 9.4
2019-Dec-05 09:15 065 12 gusting 18 9.4
2019-Dec-05 09:10 058 12 gusting 14 9.4
2019-Dec-05 09:05 053 11 gusting 18 9.4
2019-Dec-05 09:00 059 11 gusting 18 9.4
2019-Dec-05 08:55 051 11 gusting 19 9.4
2019-Dec-05 08:50 061 11 gusting 19 9.4
2019-Dec-05 08:45 060 11 gusting 18 9.4
2019-Dec-05 08:40 052 11 gusting 13 9.4
2019-Dec-05 08:35 061 11 gusting 17 9.4
2019-Dec-05 08:30 061 10 gusting 18 9.4
2019-Dec-05 08:25 069 10 gusting 18 9.4
2019-Dec-05 08:20 077 10 gusting 15 9.4
2019-Dec-05 08:15 068 9 gusting 13 9.4
2019-Dec-05 08:10 065 8 gusting 14 9.4
2019-Dec-05 08:05 060 8 gusting 13 9.4
2019-Dec-05 08:00 065 10 gusting 13 9.4
2019-Dec-05 07:55 074 10 gusting 13 9.4
2019-Dec-05 07:50 074 8 gusting 13 9.4
2019-Dec-05 07:45 069 8 gusting 13 9.4
2019-Dec-05 07:40 070 10 gusting 13 9.4
2019-Dec-05 07:35 073 10 gusting 13 9.4
2019-Dec-05 07:30 071 12 gusting 13 8.9
2019-Dec-05 07:25 059 11 gusting 14 8.9
2019-Dec-05 07:20 072 11 gusting 18 8.9
2019-Dec-05 07:15 070 11 gusting 18 8.9
2019-Dec-05 07:10 076 11 gusting 15 8.9
2019-Dec-05 07:05 068 12 gusting 15 8.9
2019-Dec-05 07:00 075 13 gusting 15 8.9
2019-Dec-05 06:55 071 13 gusting 15 8.9
2019-Dec-05 06:50 075 13 gusting 20 8.3
2019-Dec-05 06:45 065 13 gusting 20 8.3
2019-Dec-05 06:40 066 13 gusting 19 8.3
2019-Dec-05 06:35 063 13 gusting 19 8.3
2019-Dec-05 06:30 068 11 gusting 19 8.3
2019-Dec-05 06:25 067 11 gusting 19 8.3
2019-Dec-05 06:20 075 12 gusting 18 8.3
2019-Dec-05 06:15 071 11 gusting 18 8.3
2019-Dec-05 06:10 070 10 gusting 18 8.3
2019-Dec-05 06:05 069 10 gusting 18 8.3
2019-Dec-05 06:00 076 12 gusting 18 8.3
2019-Dec-05 05:55 069 11 gusting 18 7.8
2019-Dec-05 05:50 054 10 gusting 18 7.8
2019-Dec-05 05:45 055 10 gusting 15 7.8
2019-Dec-05 05:40 060 8 gusting 13 7.8
2019-Dec-05 05:35 055 8 gusting 15 7.8
2019-Dec-05 05:30 051 8 gusting 13 7.8
2019-Dec-05 05:25 053 8 gusting 15 7.8
2019-Dec-05 05:20 052 7 gusting 15 7.8
2019-Dec-05 05:15 052 7 gusting 13 7.8
2019-Dec-05 05:00 056 7 gusting 14 7.8
2019-Dec-05 04:55 063 7 gusting 11 7.8
2019-Dec-05 04:50 060 8 gusting 12 7.8
2019-Dec-05 04:45 063 9 gusting 13 7.8
2019-Dec-05 04:40 064 11 gusting 13 7.8
2019-Dec-05 04:35 080 10 gusting 18 7.8
2019-Dec-05 04:30 078 8 gusting 18 7.8
2019-Dec-05 04:25 070 8 gusting 14 7.8
2019-Dec-05 04:20 081 8 gusting 12 7.8
2019-Dec-05 04:15 074 8 gusting 14 7.8
2019-Dec-05 04:10 077 10 gusting 14 7.8
2019-Dec-05 04:05 078 10 gusting 13 7.8
2019-Dec-05 04:00 073 11 gusting 14 7.8
2019-Dec-05 03:55 064 10 gusting 14 7.8
2019-Dec-05 03:50 066 8 gusting 14 7.8
2019-Dec-05 03:45 072 8 gusting 19 7.8
2019-Dec-05 03:40 067 8 gusting 13 7.8
2019-Dec-05 03:35 066 8 gusting 13 7.8
2019-Dec-05 03:30 083 8 gusting 13 7.8
2019-Dec-05 03:15 069 12 gusting 17 7.8
2019-Dec-05 03:10 066 11 gusting 17 7.8
2019-Dec-05 03:05 075 11 gusting 18 7.8
2019-Dec-05 03:00 076 10 gusting 15 7.8
2019-Dec-05 02:55 066 10 gusting 17 7.8
2019-Dec-05 02:50 072 11 gusting 17 7.8
2019-Dec-05 02:45 076 11 gusting 19 7.8
2019-Dec-05 02:40 073 11 gusting 22 7.8
2019-Dec-05 02:35 072 11 gusting 18 7.8
2019-Dec-05 02:30 066 13 gusting 18 7.8
2019-Dec-05 02:25 077 13 gusting 17 7.8
2019-Dec-05 02:20 077 13 gusting 19 7.8
2019-Dec-05 02:15 075 13 gusting 19 7.8
2019-Dec-05 02:10 066 13 gusting 19 7.8
2019-Dec-05 02:05 072 13 gusting 18 7.8
2019-Dec-05 02:00 071 13 gusting 19 7.8
2019-Dec-05 01:55 078 13 gusting 22 7.8
2019-Dec-05 01:50 074 13 gusting 22 7.8
2019-Dec-05 01:45 077 13 gusting 21 7.8
2019-Dec-05 01:40 077 14 gusting 21 7.8
2019-Dec-05 01:35 069 14 gusting 26 7.8
2019-Dec-05 01:30 074 14 gusting 26 7.8
2019-Dec-05 01:25 066 14 gusting 19 7.8
2019-Dec-05 01:20 071 14 gusting 24 7.8
2019-Dec-05 01:15 079 14 gusting 24 7.8
2019-Dec-05 01:10 070 15 gusting 25 7.8
2019-Dec-05 01:05 079 14 gusting 24 7.8
2019-Dec-05 01:00 073 13 gusting 24 7.8
2019-Dec-05 00:55 071 13 gusting 24 7.8
2019-Dec-05 00:50 075 13 gusting 22 7.8
2019-Dec-05 00:45 071 12 gusting 19 7.8
2019-Dec-05 00:40 074 12 gusting 19 7.8
2019-Dec-05 00:20 070 14 gusting 18 8.3
2019-Dec-05 00:15 068 14 gusting 21 8.3
2019-Dec-05 00:10 075 13 gusting 24 8.3
2019-Dec-05 00:05 068 13 gusting 24 8.3
2019-Dec-05 00:00 078 14 gusting 22 8.3
2019-Dec-04 23:55 077 14 gusting 26 8.3
2019-Dec-04 23:50 075 15 gusting 22 8.3
2019-Dec-04 23:45 073 15 gusting 21 8.3
2019-Dec-04 23:40 079 15 gusting 21 8.3
2019-Dec-04 23:35 075 16 gusting 25 8.3
2019-Dec-04 23:30 090 19 gusting 25 8.3
2019-Dec-04 23:25 092 19 gusting 25 8.3
2019-Dec-04 23:20 091 19 gusting 31 8.3
2019-Dec-04 23:15 094 19 gusting 28 8.3
2019-Dec-04 23:10 093 18 gusting 32 8.3
2019-Dec-04 23:05 093 19 gusting 32 8.3
2019-Dec-04 23:00 097 20 gusting 28 8.3
2019-Dec-04 22:55 095 20 gusting 27 8.3
2019-Dec-04 22:50 100 21 gusting 27 8.3
2019-Dec-04 22:45 104 21 gusting 31 8.3
2019-Dec-04 22:40 100 21 gusting 35 8.3
2019-Dec-04 22:35 108 21 gusting 31 8.3
2019-Dec-04 22:30 110 21 gusting 33 8.3
2019-Dec-04 22:25 108 21 gusting 38 8.3
2019-Dec-04 22:20 110 22 gusting 38 8.3
2019-Dec-04 22:15 105 22 gusting 35 8.3
2019-Dec-04 22:10 108 20 gusting 35 8.3
2019-Dec-04 22:05 105 20 gusting 28 8.3
2019-Dec-04 22:00 103 21 gusting 28 8.3
2019-Dec-04 21:55 103 21 gusting 30 8.3
2019-Dec-04 21:50 110 19 gusting 33 8.3
2019-Dec-04 21:45 103 19 gusting 31 8.3
2019-Dec-04 21:40 102 17 gusting 30 8.3
2019-Dec-04 21:35 100 17 gusting 27 8.3
2019-Dec-04 21:25 093 12 gusting 26 8.3
2019-Dec-04 21:20 111 10 gusting 18 8.3
2019-Dec-04 21:15 104 10 gusting 14 8.3
2019-Dec-04 21:05 105 13 gusting 18 7.8
2019-Dec-04 20:50 107 12 gusting 19 7.8
2019-Dec-04 20:40 108 13 gusting 19 7.8
2019-Dec-04 20:35 097 13 gusting 15 7.8
2019-Dec-04 20:30 105 13 gusting 18 7.8
2019-Dec-04 20:25 100 13 gusting 21 7.8
2019-Dec-04 20:20 098 14 gusting 21 7.8
2019-Dec-04 20:15 099 14 gusting 19 7.8
2019-Dec-04 20:10 103 14 gusting 25 7.8
2019-Dec-04 20:05 099 14 gusting 28 7.8
2019-Dec-04 20:00 101 15 gusting 28 7.8
2019-Dec-04 19:55 099 15 gusting 27 7.8
2019-Dec-04 19:50 101 13 gusting 27 7.8
2019-Dec-04 19:45 093 13 gusting 22 7.8
2019-Dec-04 19:40 079 14 gusting 22 7.8
2019-Dec-04 19:35 085 14 gusting 19 7.8
2019-Dec-04 19:25 080 13 gusting 22 7.8
2019-Dec-04 19:20 082 13 gusting 22 7.8
2019-Dec-04 19:10 092 15 gusting 21 7.8
2019-Dec-04 19:05 081 15 gusting 25 7.8
2019-Dec-04 19:00 101 17 gusting 25 7.8
2019-Dec-04 18:55 094 17 gusting 27 7.8
2019-Dec-04 18:50 099 17 gusting 26 7.8
2019-Dec-04 18:45 105 17 gusting 26 7.8
2019-Dec-04 18:40 103 15 gusting 26 7.8
2019-Dec-04 18:35 100 15 gusting 22 7.8
2019-Dec-04 18:30 089 14 gusting 24 7.8
2019-Dec-04 18:25 088 14 gusting 26 7.8
2019-Dec-04 18:20 086 13 gusting 24 7.8
2019-Dec-04 18:15 103 13 gusting 22 7.8
2019-Dec-04 18:10 097 12 gusting 20 7.8
2019-Dec-04 18:05 093 11 gusting 20 7.8
2019-Dec-04 18:00 101 7 gusting 19 7.8
2019-Dec-04 17:55 091 7 gusting 15 7.8
2019-Dec-04 17:50 063 11 gusting 12 7.8
2019-Dec-04 17:40 040 17 gusting 19 7.8
2019-Dec-04 17:35 075 17 gusting 26 7.8
2019-Dec-04 17:30 079 17 gusting 27 7.8
2019-Dec-04 17:25 072 17 gusting 22 7.8
2019-Dec-04 17:20 093 14 gusting 25 7.8
2019-Dec-04 17:15 079 14 gusting 25 7.8
2019-Dec-04 17:10 073 14 gusting 21 7.8
2019-Dec-04 17:05 080 14 gusting 21 8.3
2019-Dec-04 17:00 080 15 gusting 25 8.3
2019-Dec-04 16:55 075 15 gusting 25 8.3
2019-Dec-04 16:50 080 15 gusting 22 8.3
2019-Dec-04 16:45 077 15 gusting 21 8.3
2019-Dec-04 16:40 080 17 gusting 26 8.3
2019-Dec-04 16:35 091 17 gusting 26 8.3
2019-Dec-04 16:30 094 16 gusting 24 8.3
2019-Dec-04 16:25 099 15 gusting 24 8.3
2019-Dec-04 16:20 101 14 gusting 24 8.3
2019-Dec-04 16:15 096 14 gusting 24 8.3
2019-Dec-04 16:10 105 15 gusting 26 8.3
2019-Dec-04 16:05 106 17 gusting 21 8.3
2019-Dec-04 15:55 086 18 gusting 27 8.3
2019-Dec-04 15:50 085 18 gusting 26 8.3
2019-Dec-04 15:45 085 17 gusting 22 8.3
2019-Dec-04 15:40 080 15 gusting 26 8.3
2019-Dec-04 15:35 087 15 gusting 30 8.3
2019-Dec-04 15:25 096 14 gusting 25 8.3
2019-Dec-04 15:20 079 15 gusting 20 8.3
2019-Dec-04 15:00 092 18 gusting 27 8.3
2019-Dec-04 14:45 089 17 gusting 27 8.3
2019-Dec-04 14:40 089 19 gusting 25 8.3
2019-Dec-04 14:35 085 18 gusting 27 8.3
2019-Dec-04 14:25 094 15 gusting 28 8.3
2019-Dec-04 14:20 096 15 gusting 27 8.3
2019-Dec-04 14:15 090 15 gusting 27 8.3
2019-Dec-04 14:05 072 18 gusting 32 8.3
2019-Dec-04 14:00 068 18 gusting 28 8.9
2019-Dec-04 13:55 080 18 gusting 28 8.9
2019-Dec-04 13:50 078 18 gusting 24 8.3
2019-Dec-04 13:35 090 18 gusting 27 8.3
2019-Dec-04 13:25 092 17 gusting 26 8.3
2019-Dec-04 13:20 085 17 gusting 28 8.3
2019-Dec-04 13:15 089 17 gusting 27 8.3
2019-Dec-04 13:10 093 17 gusting 24 8.3
2019-Dec-04 13:05 089 18 gusting 27 8.3
2019-Dec-04 13:00 091 19 gusting 27 8.3
2019-Dec-04 12:55 091 18 gusting 27 8.3
2019-Dec-04 12:50 100 17 gusting 28 8.3
2019-Dec-04 12:45 095 17 gusting 26 8.3
2019-Dec-04 12:40 098 17 gusting 22 8.3
2019-Dec-04 12:35 090 17 gusting 24 8.3
2019-Dec-04 12:30 094 16 gusting 25 8.3
2019-Dec-04 12:25 095 15 gusting 26 8.3
2019-Dec-04 12:20 087 15 gusting 26 8.3
2019-Dec-04 12:15 088 16 gusting 26 8.3
2019-Dec-04 12:10 082 17 gusting 24 8.3
2019-Dec-04 12:05 094 17 gusting 26 8.3
2019-Dec-04 12:00 088 16 gusting 26 8.3
2019-Dec-04 11:55 090 16 gusting 26 8.3
2019-Dec-04 11:50 092 18 gusting 26 8.3
2019-Dec-04 11:45 084 18 gusting 26 8.3
2019-Dec-04 11:40 088 15 gusting 26 8.3
2019-Dec-04 11:35 072 14 gusting 24 8.3
2019-Dec-04 11:25 073 15 gusting 15 8.3
2019-Dec-04 11:20 084 15 gusting 25 8.3
2019-Dec-04 11:10 080 14 gusting 25 8.3
2019-Dec-04 11:05 078 14 gusting 27 8.3
2019-Dec-04 11:00 081 15 gusting 27 8.3
2019-Dec-04 10:55 074 15 gusting 26 8.3
2019-Dec-04 10:50 081 17 gusting 26 8.3
2019-Dec-04 10:45 073 17 gusting 21 8.3
2019-Dec-04 10:40 080 15 gusting 26 8.3
2019-Dec-04 10:35 083 15 gusting 26 8.3
2019-Dec-04 10:30 083 13 gusting 26 8.3
2019-Dec-04 10:25 085 13 gusting 21 8.3
2019-Dec-04 10:20 081 14 gusting 19 8.3
2019-Dec-04 10:15 080 14 gusting 26 8.3
2019-Dec-04 10:10 081 14 gusting 26 8.3
2019-Dec-04 10:05 087 14 gusting 26 8.3
2019-Dec-04 10:00 079 14 gusting 19 8.3
2019-Dec-04 09:55 078 14 gusting 19 8.3
2019-Dec-04 09:50 081 14 gusting 21 8.3
2019-Dec-04 09:45 088 14 gusting 21 8.3
2019-Dec-04 09:40 085 17 gusting 21 8.3
2019-Dec-04 09:35 080 16 gusting 22 8.3
2019-Dec-04 09:25 078 13 gusting 20 8.9
2019-Dec-04 09:20 060 15 gusting 15 8.9
2019-Dec-04 09:15 060 15 gusting 15 8.9
2019-Dec-04 09:10 060 15 gusting 19 8.9
2019-Dec-04 09:05 075 15 gusting 22 8.9
2019-Dec-04 09:00 074 15 gusting 22 8.9
2019-Dec-04 08:55 078 15 gusting 21 8.9
2019-Dec-04 08:50 080 15 gusting 21 8.9
2019-Dec-04 08:45 090 15 gusting 26 8.3
2019-Dec-04 08:40 070 15 gusting 26 8.9
2019-Dec-04 08:35 080 15 gusting 28 8.9
2019-Dec-04 08:25 078 14 gusting 25 8.9
2019-Dec-04 08:20 080 15 gusting 24 8.9
2019-Dec-04 08:15 068 15 gusting 24 8.9
2019-Dec-04 08:10 082 15 gusting 24 8.9
2019-Dec-04 08:05 079 15 gusting 26 8.9
2019-Dec-04 08:00 073 13 gusting 26 8.9
2019-Dec-04 07:55 085 13 gusting 21 8.9
2019-Dec-04 07:50 066 14 gusting 19 8.9
2019-Dec-04 07:45 088 14 gusting 21 8.9
2019-Dec-04 07:40 081 14 gusting 20 8.9
2019-Dec-04 07:35 077 14 gusting 21 8.9
2019-Dec-04 07:25 086 13 gusting 20 8.9
2019-Dec-04 07:20 082 14 gusting 20 8.9
2019-Dec-04 07:15 080 14 gusting 20 8.9
2019-Dec-04 07:05 086 13 gusting 19 8.9
2019-Dec-04 07:00 091 14 gusting 19 8.9
2019-Dec-04 06:55 085 14 gusting 19 8.9
2019-Dec-04 06:50 088 14 gusting 19 8.9
2019-Dec-04 06:45 087 14 gusting 25 8.9
2019-Dec-04 06:40 082 13 gusting 22 8.9
2019-Dec-04 06:35 085 13 gusting 25 8.9
2019-Dec-04 06:25 077 13 gusting 21 8.9
2019-Dec-04 06:20 088 14 gusting 24 8.9
2019-Dec-04 06:15 084 14 gusting 24 8.9
2019-Dec-04 06:10 083 13 gusting 25 8.9
2019-Dec-04 06:05 080 13 gusting 20 8.9
2019-Dec-04 06:00 083 13 gusting 21 9.4
2019-Dec-04 05:55 086 13 gusting 21 9.4
2019-Dec-04 05:50 086 13 gusting 18 9.4
2019-Dec-04 05:45 090 13 gusting 19 9.4
2019-Dec-04 05:40 081 13 gusting 21 9.4
2019-Dec-04 05:35 088 13 gusting 21 9.4
2019-Dec-04 05:25 084 13 gusting 18 9.4
2019-Dec-04 05:20 077 13 gusting 22 9.4
2019-Dec-04 05:10 085 13 gusting 24 9.4
2019-Dec-04 05:05 089 13 gusting 24 9.4
2019-Dec-04 04:55 090 13 gusting 20 9.4
2019-Dec-04 04:45 082 13 gusting 21 9.4
2019-Dec-04 04:40 081 14 gusting 20 9.4
2019-Dec-04 04:35 089 14 gusting 22 9.4
2019-Dec-04 04:30 089 13 gusting 22 9.4
2019-Dec-04 04:25 099 13 gusting 20 9.4
2019-Dec-04 04:20 098 14 gusting 20 9.4
2019-Dec-04 04:10 088 13 gusting 19 9.4
2019-Dec-04 04:05 083 13 gusting 24 9.4
2019-Dec-04 03:55 097 13 gusting 19 9.4
2019-Dec-04 03:50 084 13 gusting 19 10.0
2019-Dec-04 03:40 080 13 gusting 19 10.0
2019-Dec-04 03:30 089 13 gusting 19 10.0
2019-Dec-04 03:25 086 13 gusting 21 10.0
2019-Dec-04 03:20 089 13 gusting 19 10.0
2019-Dec-04 03:10 089 13 gusting 19 10.0
2019-Dec-04 03:05 089 13 gusting 19 10.0
2019-Dec-04 02:55 094 13 gusting 20 10.0
2019-Dec-04 02:50 086 13 gusting 19 10.0
2019-Dec-04 02:45 095 13 gusting 20 10.0
2019-Dec-04 02:40 094 13 gusting 20 10.0
2019-Dec-04 02:35 091 13 gusting 19 10.0
2019-Dec-04 02:25 085 13 gusting 22 10.0
2019-Dec-04 02:20 091 12 gusting 21 10.0
2019-Dec-04 02:15 088 12 gusting 19 10.0
2019-Dec-04 02:10 094 13 gusting 18 10.6
2019-Dec-04 02:05 093 12 gusting 20 10.6
2019-Dec-04 02:00 096 11 gusting 20 10.6
2019-Dec-04 01:55 085 11 gusting 18 10.6
2019-Dec-04 01:45 101 10 gusting 12 10.6
2019-Dec-04 01:40 106 11 gusting 12 10.6
2019-Dec-04 01:35 106 11 gusting 15 10.6
2019-Dec-04 01:25 092 11 gusting 15 10.6
2019-Dec-04 01:15 087 11 gusting 15 10.6
2019-Dec-04 01:10 097 10 gusting 15 10.6
2019-Dec-04 01:05 089 10 gusting 15 10.6
2019-Dec-04 01:00 084 8 gusting 13 10.6
2019-Dec-04 00:55 091 8 gusting 14 10.6
2019-Dec-04 00:45 092 10 gusting 14 10.6
2019-Dec-04 00:40 086 8 gusting 13 10.6
2019-Dec-04 00:35 084 8 gusting 13 10.6
2019-Dec-04 00:30 084 8 gusting 13 11.1
2019-Dec-04 00:25 086 8 gusting 13 11.1
2019-Dec-04 00:15 086 8 gusting 12 11.1
2019-Dec-04 00:10 077 7 gusting 13 11.1
2019-Dec-04 00:05 077 7 gusting 13 11.1
2019-Dec-04 00:00 079 7 gusting 11 11.7
2019-Dec-03 23:55 075 7 gusting 13 11.7
2019-Dec-03 23:50 068 6 gusting 13 11.7
2019-Dec-03 23:45 072 6 gusting 13 11.7
2019-Dec-03 23:40 064 6 gusting 11 11.7
2019-Dec-03 23:35 062 6 gusting 12 11.7
2019-Dec-03 23:25 059 6 gusting 11 11.7
2019-Dec-03 23:20 064 6 gusting 11 11.7
2019-Dec-03 23:00 049 6 gusting 12 11.1
2019-Dec-03 22:50 065 6 gusting 11 11.1
2019-Dec-03 22:45 056 6 gusting 10 11.1
2019-Dec-03 22:40 064 6 gusting 7 11.7
2019-Dec-03 22:35 064 6 gusting 7 11.7
2019-Dec-03 22:25 056 6 gusting 8 11.7
2019-Dec-03 22:15 049 6 gusting 13 11.7
2019-Dec-03 22:10 050 6 gusting 13 11.7
2019-Dec-03 22:05 040 6 gusting 8 11.7
2019-Dec-03 22:00 062 6 gusting 8 11.7